Denver, CO

6:14 PM MDT on July 26, 2017 (GMT -0600)
Denver International

Weather History for KDEN - July, 2013

Change the Weather History Date:

Friday, July 19, 2013

  Actual Average Record
Temperature  
Mean Temperature 71 °F 75 °F  
Max Temperature 81 °F 90 °F 101 °F (2005)
Min Temperature 61 °F 60 °F 48 °F (1897)
Degree Days  
Heating Degree Days 0 0  
Month to date heating degree days 0 1  
Since 1 June heating degree days 29 63  
Since 1 July heating degree days 0 1  
Cooling Degree Days 6 10  
Month to date cooling degree days 202 169  
Year to date cooling degree days 465 324  
Since 1 June cooling degree days 423 302  
Growing Degree Days 22 (Base 50)    
Moisture  
Dew Point 55 °F    
Average Humidity 59    
Maximum Humidity 78    
Minimum Humidity 39    
Precipitation  
Precipitation 0.00 in 0.08 in 1.51 in (1985)
Month to date precipitation 1.48 1.21  
Year to date precipitation 7.47 8.72  
Snow  
Snow 0.00 in - - ()
Month to date snowfall 0  
Since 1 June snowfall 0  
Since 1 July snowfall 0  
Snow Depth 0.00 in    
Sea Level Pressure  
Sea Level Pressure 29.97 in    
Wind  
Wind Speed 9 mph (NE)    
Max Wind Speed 22 mph    
Max Gust Speed 30 mph    
Visibility 10 miles    
Events      
T = Trace of Precipitation, MM = Missing Value Source: NWS Daily Summary

Daily Weather History Graph

Daily Weather History Graph

Search for Another Location

Airport or City:

Trip Planner

Search our weather history database for the weather conditions in past years. The results will help you decide how hot, cold, wet, or windy it might be!

Date:

Astronomy

Jul. 19, 2013 Rise Set
Actual Time 5:46 AM MDT 8:23 PM MDT
Civil Twilight 5:14 AM MDT 8:54 PM MDT
Nautical Twilight 4:35 AM MDT 9:33 PM MDT
Astronomical Twilight 3:51 AM MDT 10:17 PM MDT
Moon 5:28 PM MDT (7/19) 2:29 AM MDT (7/19)
Length of Visible Light 15h 39m
Length of Day
14h 37m
Waxing Gibbous, 87% of the Moon is Illuminated
Jul 19
Waxing Gibbous
Jul 22
Full
Jul 29
Last Quarter
Aug 6
New
Aug 14
First Quarter

Hourly Weather History & Observations

Time (MDT) Temp. Dew Point Humidity Pressure Visibility Wind Dir Wind Speed Gust Speed Precip Events Conditions
12:53 AM 66.0 °F 55.9 °F 70% 29.98 in 10.0 mi North 3.5 mph - N/A   Overcast
1:53 AM 64.9 °F 55.9 °F 73% 29.97 in 10.0 mi North 4.6 mph - N/A   Overcast
2:53 AM 66.9 °F 55.0 °F 66% 29.95 in 10.0 mi NW 3.5 mph - N/A   Overcast
3:53 AM 66.0 °F 55.9 °F 70% 29.94 in 10.0 mi West 6.9 mph - N/A   Overcast
4:53 AM 66.0 °F 55.9 °F 70% 29.96 in 10.0 mi West 10.4 mph - N/A   Mostly Cloudy
5:53 AM 66.9 °F 55.9 °F 68% 29.98 in 10.0 mi West 8.1 mph - N/A   Mostly Cloudy
6:53 AM 66.9 °F 55.9 °F 68% 29.99 in 10.0 mi WSW 8.1 mph - N/A   Mostly Cloudy
7:53 AM 68.0 °F 55.0 °F 63% 30.00 in 9.0 mi WSW 10.4 mph - N/A   Mostly Cloudy
8:53 AM 72.0 °F 55.0 °F 55% 30.01 in 10.0 mi West 5.8 mph - N/A   Mostly Cloudy
9:53 AM 73.9 °F 53.1 °F 48% 30.02 in 10.0 mi Calm Calm - N/A   Mostly Cloudy
10:53 AM 75.9 °F 54.0 °F 46% 30.02 in 10.0 mi NE 12.7 mph - N/A   Mostly Cloudy
11:53 AM 78.1 °F 52.0 °F 40% 30.02 in 10.0 mi NE 13.8 mph 20.7 mph N/A   Mostly Cloudy
12:53 PM 79.0 °F 54.0 °F 42% 30.01 in 10.0 mi NE 17.3 mph 24.2 mph N/A   Mostly Cloudy
1:53 PM 79.0 °F 55.0 °F 44% 30.00 in 10.0 mi NE 20.7 mph 27.6 mph N/A   Mostly Cloudy
2:53 PM 79.0 °F 53.1 °F 40% 29.98 in 10.0 mi NE 13.8 mph 21.9 mph N/A   Mostly Cloudy
3:53 PM 78.1 °F 57.9 °F 50% 29.97 in 10.0 mi ENE 16.1 mph 26.5 mph N/A   Mostly Cloudy
4:53 PM 78.1 °F 55.0 °F 45% 29.96 in 10.0 mi East 13.8 mph - N/A   Scattered Clouds
5:53 PM 78.1 °F 55.0 °F 45% 29.94 in 10.0 mi NE 10.4 mph - N/A   Scattered Clouds
6:53 PM 75.9 °F 55.0 °F 48% 29.94 in 10.0 mi East 10.4 mph 20.7 mph N/A   Scattered Clouds
7:53 PM 72.0 °F 55.0 °F 55% 29.97 in 10.0 mi East 8.1 mph - N/A   Scattered Clouds
8:53 PM 68.0 °F 55.0 °F 63% 29.97 in 10.0 mi East 4.6 mph - N/A   Scattered Clouds
9:53 PM 70.0 °F 55.0 °F 59% 29.95 in 10.0 mi Calm Calm - N/A   Scattered Clouds
10:53 PM 66.0 °F 55.0 °F 68% 29.94 in 10.0 mi South 8.1 mph - N/A   Scattered Clouds
11:53 PM 63.0 °F 55.0 °F 75% 29.92 in 10.0 mi South 8.1 mph - N/A   Scattered Clouds